Regional Weather Roundup
Issued by NWS

Home | Current Version | Previous Version | Graphics & Text | Print | Product List | Glossary On
Versions: 1 2 3 4 5 6 7 8 9 10 11 12 13 14 15 16 17 18 19 20 21 22 23 24 25 26 27 28 29 30 31 32 33 34 35 36 37 38 39 40 41 42 43 44 45 46 47 48 49 50
000
ASUS43 KIND 290400
RWRIN

WEATHER ROUNDUP FOR INDIANA
NATIONAL WEATHER SERVICE INDIANAPOLIS IN
1200 AM EDT MON MAY 29 2017

NOTE: "FAIR" INDICATES FEW OR NO CLOUDS BELOW 12,000 FEET WITH NO
SIGNIFICANT WEATHER AND/OR OBSTRUCTIONS TO VISIBILITY.

* - STATION DOES NOT REPORT WEATHER SUCH AS PRECIPITATION OR FOG.

+ - STATION NOT QUALITY CONTROLLED BY THE NATIONAL WEATHER SERVICE.
    USE DATA WITH CAUTION...ESPECIALLY DEWPOINT AND RELATIVE
    HUMIDITY OBSERVATIONS.

INZ001>003-010>013-019-020-290500-
NORTHWEST INDIANA

CITY           SKY/WX    TMP DP  RH WIND       PRES   REMARKS
MICHIGAN CITY+ CLEAR     55  55 100 CALM      29.78S FOG
MONTICELLO +   CLEAR     60  54  79 CALM      29.79S
RENSSELAER +   CLEAR     64  50  59 W5        29.80F

$$

LMZ046-743>745-290500-
SOUTHERN LAKE MICHIGAN

STATION/POSITION TIME  TEMP    WIND        PRES    WAVE
                       AIR SEA DIR/SP/G            HT
                 (UTC) (F)     (DEG/KT/KT) (MB)    (FT)
BURNS HARBOR     0340   68     240/  7/  8 1008.8S
MICHIGAN CITY    0330   67     230/ 11/ 11   N/A
5NW MICH CITY    0340   61 58  220/  6/  6   N/A     1

$$

INZ004-005-014>016-021>024-290500-
NORTH CENTRAL INDIANA

CITY           SKY/WX    TMP DP  RH WIND       PRES   REMARKS
GOSHEN         CLEAR     59  54  83 S6        29.77F
SOUTH BEND     PTCLDY    60  57  89 SW3       29.78S

$$

INZ006>009-017-018-025>027-290500-
NORTHEAST INDIANA

CITY           SKY/WX    TMP DP  RH WIND       PRES   REMARKS
ANGOLA *+      CLEAR     61  52  72 W5        29.76S
FORT WAYNE     PTCLDY    60  58  92 SW6       29.79S
KENDALLVILLE + CLEAR     59  55  85 W3        29.78S

$$

INZ028-029-035-036-043>045-051>053-290500-
WEST CENTRAL INDIANA

CITY           SKY/WX    TMP DP  RH WIND       PRES   REMARKS
CRAWFORDSVL +  CLEAR    -19 -19 100 S3        29.84R
LAFAYETTE      CLOUDY    58  57  97 W5        29.81R
TERRE HAUTE    CLEAR     64  59  83 SW3       29.85R

$$

INZ030>032-037>040-046>048-054>057-064-065-290500-
CENTRAL INDIANA

CITY           SKY/WX    TMP DP  RH WIND       PRES   REMARKS
INDIANAPOLIS   CLEAR     63  62  97 SW9       29.84R
-EAGLE CREEK   CLEAR     63  61  93 S3        29.83R
KOKOMO +       CLEAR     61  57  87 SW7       29.81S
SHELBYVILLE    CLEAR     64  60  87 SW7       29.84R

$$

INZ033-034-041-042-049-050-058-059-290500-
EAST CENTRAL INDIANA

CITY           SKY/WX    TMP DP  RH WIND       PRES   REMARKS
MUNCIE         CLEAR     65  62  90 SW6       29.81S
RICHMOND +     PTCLDY    61  59  94 SW9       29.84R

$$

INZ060-061-067>069-081>083-085>088-290500-
SOUTHWEST INDIANA

CITY           SKY/WX    TMP DP  RH WIND       PRES   REMARKS
EVANSVILLE     CLEAR     67  60  78 SW6       29.89R
HUNTINGBURG *+ PTCLDY    66  63  90 SW7       29.88S

$$

INZ062-063-066-070>080-084-089>092-290500-
SOUTH CENTRAL AND SOUTHEAST INDIANA

CITY           SKY/WX    TMP DP  RH WIND       PRES   REMARKS
BLOOMINGTON    CLEAR     66  62  87 W3        29.85S
MADISON *+     CLOUDY    64  63  94 N3        29.89S
SEYMOUR +      PTCLDY    66  64  94 CALM      29.85S

$$




USA.gov is the U.S. government's official web portal to all federal, state and local government web resources and services.